User: anonymous
Location: Unspecified
(0.0000°N, 0.0000°E)
Time: 16:53:13
(UTC+02:00)
Language:

ATLAS 3B CENTAUR R/B - Orbit

View from above orbital plane
View from above orbital plane
View from above satellite
View from above satellite

Ground track
Ground track

The orbit data is extracted from the following two-line orbital elements,

1 28118U 03057B   14110.86908753  .00096103  00000-0  20376-2 0  4846
2 28118 028.1683 229.5851 3947338 292.5024 311.5779 07.62127370191204
Epoch (UTC): 20 April 2014 20:51:29
Eccentricity: 0.3947338
inclination: 28.1683°
perigee height: 223 km
apogee height: 8834 km
right ascension of ascending node: 229.5851°
argument of perigee: 292.5024°
revolutions per day: 7.62127370
mean anomaly at epoch: 311.5779°
orbit number at epoch: 19120

The dashed part of the orbit path shows where the satellite is in the earth's shadow,  

DLR